EW6571 Weather Reports


Display with metric or nautical units.
time (UTC)temp
F
wind
direction
speed
MPH
gust
MPH
rain 1hr
in
rain 24hr
in
rain mn
in
humidity
%
barometer
mb
20260506231555 59 306 5.0 18.0 0.00 0.00 0.00 30 1013.5
20260506230054 59 324 10.0 17.0 0.00 0.00 0.00 29 1013.7
20260506224550 58 304 2.0 17.0 0.00 0.00 0.00 27 1013.8
20260506223048 57 284 11.0 16.0 0.00 0.00 0.00 27 1014.0
20260506221548 58 267 14.0 18.0 0.00 0.00 0.00 29 1013.9
20260506220050 58 294 10.0 19.0 0.00 0.00 0.00 30 1014.0
20260506214547 57 40 0.0 16.0 0.00 0.00 0.00 29 1014.2
20260506213043 57 302 5.0 10.0 0.00 0.00 0.00 29 1014.4
20260506211539 56 301 5.0 13.0 0.00 0.00 0.00 30 1014.4
20260506210038 55 318 3.0 12.0 0.00 0.00 0.00 31 1014.4
20260506204540 55 292 3.0 14.0 0.00 0.00 0.00 30 1014.5
20260506203039 54 315 4.0 8.0 0.00 0.00 0.00 31 1014.5
20260506201536 53 229 0.0 6.0 0.00 0.00 0.00 31 1014.7
20260506200027 53 42 3.0 9.0 0.00 0.00 0.00 32 1014.8
20260506194525 52 340 2.0 6.0 0.00 0.00 0.00 32 1015.0
20260506193022 51 300 4.0 11.0 0.00 0.00 0.00 33 1015.2
20260506191522 51 280 4.0 11.0 0.00 0.00 0.00 33 1015.2
20260506190019 50 327 8.0 14.0 0.00 0.00 0.00 32 1015.2
20260506184516 49 284 7.0 17.0 0.00 0.00 0.00 32 1015.3
20260506183013 48 309 5.0 8.0 0.00 0.00 0.00 31 1015.6
20260506181511 47 311 2.0 6.0 0.00 0.00 0.00 33 1015.5
20260506180012 45 313 6.0 13.0 0.00 0.00 0.00 33 1015.7
20260506174504 44 295 4.0 10.0 0.00 0.00 0.00 36 1015.5
20260506173002 44 289 3.0 9.0 0.00 0.00 0.00 40 1015.5
20260506171617 43 317 4.0 10.0 0.00 0.00 0.00 39 1015.6
20260506170057 43 300 6.0 11.0 0.00 0.00 0.00 43 1015.4
20260506164606 43 292 3.0 5.0 0.00 0.00 0.00 43 1015.4
20260506163104 42 22 3.0 6.0 0.00 0.00 0.00 48 1015.4
20260506161614 40 277 1.0 5.0 0.00 0.00 0.00 56 1015.4
20260506160050 38 297 0.0 8.0 0.00 0.00 0.00 57 1015.3
20260506154551 40 216 3.0 12.0 0.00 0.00 0.00 56 1015.2
20260506153048 40 360 1.0 6.0 0.00 0.00 0.00 61 1015.1
20260506151542 39 127 3.0 8.0 0.00 0.00 0.00 64 1015.0
20260506150041 38 185 2.0 9.0 0.00 0.00 0.00 67 1014.8
20260506144538 37 250 3.0 10.0 0.00 0.00 0.00 68 1014.8
20260506143036 36 219 0.0 7.0 0.00 0.00 0.00 71 1014.8
20260506141531 35 116 2.0 7.0 0.00 0.00 0.00 73 1014.7
20260506140026 33 189 5.0 12.0 0.00 0.00 0.00 75 1014.7
20260506134523 30 140 0.0 1.0 0.00 0.00 0.00 76 1014.5
20260506133021 29 173 0.0 0.0 0.00 0.00 0.00 76 1014.3
20260506131529 28 173 0.0 1.0 0.00 0.00 0.00 73 1014.1
20260506130014 28 173 0.0 1.0 0.00 0.00 0.00 73 1013.5
20260506124512 28 173 0.0 3.0 0.00 0.00 0.00 73 1013.3
20260506123011 27 173 0.0 2.0 0.00 0.00 0.00 73 1013.2
20260506121512 27 173 0.0 1.0 0.00 0.00 0.00 74 1012.9
20260506120009 26 173 0.0 0.0 0.00 0.00 0.00 74 1012.5
20260506114503 26 173 0.0 0.0 0.00 0.00 0.00 73 1012.2
20260506113100 27 173 0.0 1.0 0.00 0.00 0.00 73 1011.9
20260506111559 28 173 0.0 4.0 0.00 0.00 0.00 73 1011.6
20260506104557 27 173 0.0 4.0 0.00 0.00 0.00 73 1011.1
20260506103056 28 173 0.0 3.0 0.00 0.00 0.00 73 1011.0
20260506101557 28 172 1.0 3.0 0.00 0.00 0.00 73 1010.7
20260506094543 28 172 3.0 5.0 0.00 0.00 0.00 72 1010.3
20260506093045 28 172 0.0 0.0 0.00 0.00 0.00 72 1010.1
20260506091539 28 172 0.0 2.0 0.00 0.00 0.00 70 1009.8
20260506090034 29 172 1.0 4.0 0.00 0.00 0.00 70 1009.5
20260506084540 29 172 0.0 1.0 0.00 0.00 0.00 70 1009.6
20260506083033 30 172 3.0 5.0 0.00 0.00 0.00 69 1009.4
20260506081538 30 172 0.0 4.0 0.00 0.00 0.00 70 1009.3
20260506073035 31 166 2.0 6.0 0.00 0.00 0.00 66 1008.9
20260506071518 32 162 0.0 5.0 0.00 0.00 0.00 63 1009.0
20260506061503 36 156 2.0 5.0 0.00 0.00 0.00 56 1008.2
20260506044647 40 28 3.0 8.0 0.00 0.00 0.00 61 1007.1
20260506043046 41 61 2.0 10.0 0.00 0.00 0.00 53 1006.7
20260506041538 43 252 1.0 10.0 0.00 0.00 0.00 45 1006.1
20260506040037 45 73 4.0 12.0 0.00 0.00 0.00 42 1005.7
20260506034600 45 25 2.0 11.0 0.00 0.00 0.00 40 1004.7
20260506033035 46 23 0.0 5.0 0.00 0.00 0.00 39 1004.4
20260506031529 46 338 0.0 2.0 0.00 0.00 0.00 39 1003.5
20260506030027 45 322 0.0 5.0 0.00 0.00 0.00 42 1002.9
20260506024523 45 247 1.0 7.0 0.00 0.00 0.00 41 1002.2
20260506023021 46 292 0.0 11.0 0.00 0.00 0.00 38 1001.8
20260506021519 47 282 9.0 13.0 0.00 0.00 0.00 38 1001.4
20260506020018 48 298 5.0 11.0 0.00 0.00 0.00 35 1000.9
20260506014526 51 298 0.0 11.0 0.00 0.00 0.00 34 1000.8
20260506013017 50 300 9.0 14.0 0.00 0.00 0.00 31 1000.6
20260506011518 53 305 5.0 13.0 0.00 0.00 0.00 28 1000.6
20260506010017 54 313 5.0 15.0 0.00 0.00 0.00 28 1000.3
20260506004530 54 288 11.0 16.0 0.00 0.00 0.00 28 1000.3
20260506003022 55 316 8.0 15.0 0.00 0.00 0.00 26 1000.2
20260506001515 56 299 10.0 17.0 0.00 0.00 0.00 26 1000.1
20260506000013 55 317 8.0 16.0 0.00 0.00 0.00 27 1000.4
20260505234519 57 316 3.0 12.0 0.00 0.00 0.00 28 1000.1
20260505233012 56 298 8.0 14.0 0.00 0.00 0.00 30 1000.0